A4066 KDYS-KDYS

Flight info

Callsign A4066
Flight time 1h 56m
Altitude 3500
Route KDYS/D0050 BGS IR128
Aircraft B1/H-V/N

Departure

Time 2026-04-14 14:55
Airport Dyess Air Force Base (KDYS)

Arrival

Time 2026-04-14 16:52
Airport Dyess Air Force Base (KDYS)
Time Latitude Longitude Altitude Speed Heading
2026-04-14 14:39 32.41033 -99.84613 1859 ft 0 kts 258°
2026-04-14 14:44 32.41031 -99.84621 1855 ft 2 kts 258°
2026-04-14 14:44 32.41027 -99.84644 1859 ft 4 kts 259°
2026-04-14 14:44 32.41028 -99.84665 1859 ft 3 kts 288°
2026-04-14 14:44 32.41038 -99.84677 1859 ft 3 kts 332°
2026-04-14 14:45 32.41082 -99.84694 1855 ft 10 kts 347°
2026-04-14 14:45 32.41176 -99.84716 1856 ft 17 kts 348°
2026-04-14 14:45 32.41300 -99.84745 1855 ft 18 kts 349°
2026-04-14 14:45 32.41412 -99.84770 1856 ft 17 kts 350°
2026-04-14 14:46 32.41511 -99.84793 1856 ft 14 kts 348°
2026-04-14 14:46 32.41621 -99.84818 1858 ft 16 kts 348°
2026-04-14 14:46 32.41677 -99.84836 1856 ft 1 kts 320°
2026-04-14 14:46 32.41682 -99.84853 1855 ft 5 kts 275°
2026-04-14 14:47 32.41671 -99.84937 1856 ft 15 kts 265°
2026-04-14 14:47 32.41705 -99.84983 1857 ft 9 kts 343°
2026-04-14 14:47 32.41804 -99.85007 1855 ft 20 kts 349°
2026-04-14 14:47 32.41962 -99.85043 1857 ft 24 kts 348°
2026-04-14 14:48 32.42113 -99.85078 1856 ft 18 kts 349°
2026-04-14 14:48 32.42267 -99.85115 1857 ft 28 kts 348°
2026-04-14 14:48 32.42460 -99.85160 1857 ft 31 kts 349°
2026-04-14 14:48 32.42642 -99.85201 1859 ft 24 kts 349°
2026-04-14 14:49 32.42829 -99.85245 1858 ft 20 kts 349°
2026-04-14 14:49 32.42991 -99.85283 1859 ft 25 kts 348°
2026-04-14 14:49 32.43163 -99.85322 1859 ft 19 kts 348°
2026-04-14 14:49 32.43299 -99.85369 1859 ft 21 kts 350°
2026-04-14 14:50 32.43473 -99.85410 1861 ft 24 kts 349°
2026-04-14 14:50 32.43634 -99.85446 1858 ft 25 kts 349°
2026-04-14 14:50 32.43801 -99.85486 1856 ft 17 kts 349°
2026-04-14 14:50 32.43901 -99.85521 1858 ft 14 kts 326°
2026-04-14 14:51 32.43927 -99.85639 1860 ft 17 kts 260°
2026-04-14 14:51 32.43908 -99.85752 1863 ft 10 kts 258°
2026-04-14 14:51 32.43906 -99.85764 1861 ft 0 kts 258°
2026-04-14 14:53 32.43902 -99.85782 1860 ft 4 kts 255°
2026-04-14 14:53 32.43894 -99.85814 1864 ft 8 kts 251°
2026-04-14 14:53 32.43857 -99.85869 1860 ft 3 kts 198°
2026-04-14 14:54 32.43830 -99.85868 1861 ft 6 kts 169°
2026-04-14 14:54 32.43829 -99.85867 1861 ft 0 kts 169°
2026-04-14 14:55 32.43758 -99.85851 1862 ft 42 kts 168°
2026-04-14 14:55 32.43162 -99.85714 1857 ft 131 kts 169°
2026-04-14 14:55 32.42033 -99.85444 2020 ft 188 kts 168°
2026-04-14 14:55 32.40684 -99.85122 2441 ft 210 kts 171°
2026-04-14 14:56 32.37687 -99.84421 3437 ft 222 kts 173°
2026-04-14 14:56 32.36115 -99.84198 3431 ft 234 kts 186°
2026-04-14 14:56 32.34537 -99.84731 3414 ft 243 kts 210°
2026-04-14 14:57 32.33428 -99.86193 3539 ft 241 kts 238°
2026-04-14 14:57 32.33068 -99.88155 3571 ft 254 kts 268°
2026-04-14 14:57 32.33742 -99.90124 3498 ft 279 kts 306°
2026-04-14 14:57 32.35487 -99.91188 3442 ft 294 kts 345°
2026-04-14 14:58 32.37517 -99.91595 3460 ft 293 kts 348°
2026-04-14 14:58 32.39422 -99.91935 3474 ft 263 kts 349°
2026-04-14 14:58 32.41161 -99.92247 3282 ft 246 kts 346°
2026-04-14 14:58 32.42807 -99.92562 3171 ft 230 kts 346°
2026-04-14 14:59 32.44345 -99.92865 3109 ft 220 kts 347°
2026-04-14 14:59 32.45874 -99.93133 2986 ft 231 kts 352°
2026-04-14 14:59 32.47509 -99.92562 2903 ft 263 kts 34°
2026-04-14 14:59 32.48691 -99.91066 2880 ft 233 kts 63°
2026-04-14 15:00 32.49031 -99.89324 2758 ft 217 kts 97°
2026-04-14 15:00 32.48495 -99.87671 2607 ft 215 kts 132°
2026-04-14 15:00 32.47414 -99.86727 2416 ft 179 kts 160°
2026-04-14 15:00 32.46270 -99.86420 2292 ft 166 kts 174°
2026-04-14 15:01 32.45161 -99.86192 2144 ft 160 kts 169°
2026-04-14 15:01 32.44074 -99.85929 1910 ft 156 kts 168°
2026-04-14 15:01 32.43087 -99.85694 1856 ft 126 kts 169°
2026-04-14 15:01 32.42040 -99.85446 2032 ft 176 kts 170°
2026-04-14 15:02 32.40740 -99.85140 2379 ft 204 kts 171°
2026-04-14 15:02 32.39294 -99.84795 2749 ft 225 kts 171°
2026-04-14 15:02 32.37691 -99.84412 3123 ft 242 kts 172°
2026-04-14 15:02 32.36018 -99.84043 3375 ft 245 kts 177°
2026-04-14 15:03 32.34361 -99.84376 3316 ft 245 kts 204°
2026-04-14 15:03 32.33065 -99.85671 3300 ft 243 kts 232°
2026-04-14 15:03 32.32571 -99.87458 3397 ft 224 kts 260°
2026-04-14 15:03 32.32946 -99.89241 3306 ft 242 kts 293°
2026-04-14 15:04 32.34180 -99.90561 3219 ft 239 kts 325°
2026-04-14 15:04 32.35739 -99.91151 3193 ft 229 kts 340°
2026-04-14 15:04 32.37269 -99.91558 3127 ft 219 kts 342°
2026-04-14 15:04 32.38718 -99.91905 3136 ft 207 kts 343°
2026-04-14 15:05 32.40110 -99.92240 3141 ft 216 kts 342°
2026-04-14 15:05 32.41656 -99.92628 3286 ft 236 kts 342°
2026-04-14 15:05 32.43294 -99.93067 3573 ft 246 kts 341°
2026-04-14 15:05 32.45024 -99.93550 3636 ft 264 kts 341°
2026-04-14 15:06 32.46880 -99.93900 3593 ft 284 kts 358°
2026-04-14 15:06 32.48793 -99.93036 3411 ft 306 kts 34°
2026-04-14 15:06 32.50123 -99.91080 3347 ft 308 kts 69°
2026-04-14 15:06 32.50317 -99.88739 3393 ft 261 kts 111°
2026-04-14 15:07 32.49443 -99.87082 3015 ft 223 kts 159°
2026-04-14 15:07 32.48130 -99.86545 2780 ft 182 kts 191°
2026-04-14 15:07 32.46964 -99.86513 2553 ft 163 kts 180°
2026-04-14 15:07 32.45838 -99.86330 2239 ft 162 kts 173°
2026-04-14 15:08 32.44743 -99.86080 2043 ft 160 kts 172°
2026-04-14 15:08 32.43659 -99.85828 1876 ft 154 kts 172°
2026-04-14 15:08 32.42668 -99.85597 1864 ft 141 kts 169°
2026-04-14 15:08 32.41531 -99.85331 2180 ft 183 kts 171°
2026-04-14 15:09 32.40237 -99.85034 2535 ft 194 kts 171°
2026-04-14 15:09 32.38887 -99.84685 2926 ft 209 kts 171°
2026-04-14 15:09 32.37389 -99.84271 3193 ft 231 kts 171°
2026-04-14 15:09 32.35760 -99.84009 3399 ft 242 kts 184°
2026-04-14 15:10 32.34086 -99.84545 3282 ft 258 kts 208°
2026-04-14 15:10 32.32805 -99.85988 3179 ft 246 kts 235°
2026-04-14 15:10 32.32368 -99.87850 3087 ft 231 kts 263°
2026-04-14 15:10 32.32805 -99.89647 2872 ft 229 kts 295°
2026-04-14 15:11 32.33835 -99.90968 2869 ft 216 kts 318°
2026-04-14 15:11 32.35261 -99.91710 3011 ft 237 kts 342°
2026-04-14 15:11 32.36922 -99.92180 3192 ft 254 kts 341°
2026-04-14 15:11 32.38715 -99.92677 3203 ft 272 kts 343°
2026-04-14 15:12 32.40607 -99.93179 3231 ft 277 kts 343°
2026-04-14 15:12 32.42410 -99.93612 3163 ft 254 kts 343°
2026-04-14 15:12 32.44090 -99.94000 2964 ft 245 kts 345°
2026-04-14 15:12 32.45752 -99.94367 2743 ft 240 kts 346°
2026-04-14 15:13 32.47374 -99.94477 2706 ft 229 kts
2026-04-14 15:13 32.48798 -99.93781 2614 ft 218 kts 36°
2026-04-14 15:13 32.49709 -99.92411 2511 ft 208 kts 67°
2026-04-14 15:13 32.50083 -99.90669 2610 ft 229 kts 88°
2026-04-14 15:14 32.49995 -99.88762 2739 ft 237 kts 107°
2026-04-14 15:14 32.49290 -99.87176 2690 ft 201 kts 138°
2026-04-14 15:14 32.48198 -99.86603 2699 ft 159 kts 173°
2026-04-14 15:14 32.47071 -99.86572 2542 ft 171 kts 175°
2026-04-14 15:15 32.45848 -99.86303 2350 ft 179 kts 171°
2026-04-14 15:15 32.44674 -99.86044 2047 ft 165 kts 174°
2026-04-14 15:15 32.43570 -99.85802 1864 ft 153 kts 171°
2026-04-14 15:15 32.42591 -99.85582 1862 ft 140 kts 169°
2026-04-14 15:16 32.41478 -99.85322 2021 ft 184 kts 171°
2026-04-14 15:16 32.40120 -99.85021 2459 ft 210 kts 172°
2026-04-14 15:16 32.38633 -99.84703 3075 ft 225 kts 173°
2026-04-14 15:16 32.37037 -99.84358 3476 ft 247 kts 174°
2026-04-14 15:17 32.35255 -99.83985 3616 ft 269 kts 174°
2026-04-14 15:17 32.33371 -99.83688 3687 ft 276 kts 181°
2026-04-14 15:17 32.31620 -99.84455 3708 ft 271 kts 218°
2026-04-14 15:17 32.30623 -99.86345 3698 ft 281 kts 249°
2026-04-14 15:18 32.30564 -99.88813 3264 ft 329 kts 281°
2026-04-14 15:18 32.31880 -99.90775 3288 ft 289 kts 333°
2026-04-14 15:18 32.33751 -99.91263 3482 ft 274 kts 347°
2026-04-14 15:18 32.35670 -99.91602 3611 ft 283 kts 348°
2026-04-14 15:19 32.37553 -99.91909 3738 ft 257 kts 346°
2026-04-14 15:19 32.39270 -99.92299 3386 ft 249 kts 344°
2026-04-14 15:19 32.40948 -99.92654 3239 ft 236 kts 345°
2026-04-14 15:19 32.42533 -99.92958 3066 ft 229 kts 346°
2026-04-14 15:20 32.44175 -99.93304 3113 ft 251 kts 346°
2026-04-14 15:20 32.45926 -99.93736 3315 ft 260 kts 343°
2026-04-14 15:20 32.47786 -99.93753 3535 ft 274 kts
2026-04-14 15:20 32.49615 -99.93048 3702 ft 287 kts 25°
2026-04-14 15:21 32.51226 -99.91597 3760 ft 296 kts 47°
2026-04-14 15:21 32.52276 -99.89519 3761 ft 295 kts 71°
2026-04-14 15:21 32.52207 -99.87410 3628 ft 237 kts 156°
2026-04-14 15:21 32.50843 -99.87090 3112 ft 204 kts 192°
2026-04-14 15:22 32.49423 -99.87121 2698 ft 203 kts 174°
2026-04-14 15:22 32.48053 -99.86809 2514 ft 197 kts 169°
2026-04-14 15:22 32.46768 -99.86521 2393 ft 180 kts 169°
2026-04-14 15:22 32.45575 -99.86252 2221 ft 169 kts 172°
2026-04-14 15:23 32.44454 -99.86010 1987 ft 163 kts 172°
2026-04-14 15:23 32.43378 -99.85760 1861 ft 149 kts 170°
2026-04-14 15:23 32.42338 -99.85520 1915 ft 160 kts 170°
2026-04-14 15:23 32.41187 -99.85246 2168 ft 176 kts 171°
2026-04-14 15:24 32.39932 -99.84977 2524 ft 188 kts 172°
2026-04-14 15:24 32.38629 -99.84707 3030 ft 191 kts 173°
2026-04-14 15:24 32.37255 -99.84443 3248 ft 208 kts 175°
2026-04-14 15:24 32.35784 -99.84352 3309 ft 220 kts 191°
2026-04-14 15:25 32.34386 -99.85174 3308 ft 235 kts 219°
2026-04-14 15:25 32.33457 -99.86778 3469 ft 246 kts 245°
2026-04-14 15:25 32.33285 -99.88839 3536 ft 264 kts 271°
2026-04-14 15:25 32.34202 -99.90813 3440 ft 294 kts 311°
2026-04-14 15:26 32.36101 -99.91873 3437 ft 308 kts 342°
2026-04-14 15:26 32.38085 -99.92406 3396 ft 279 kts 344°
2026-04-14 15:26 32.39924 -99.92835 3346 ft 253 kts 345°
2026-04-14 15:26 32.41596 -99.93186 3143 ft 247 kts 345°
2026-04-14 15:27 32.43359 -99.93554 3103 ft 254 kts 346°
2026-04-14 15:27 32.45046 -99.93907 3044 ft 238 kts 346°
2026-04-14 15:27 32.46669 -99.94165 2942 ft 230 kts 355°
2026-04-14 15:27 32.48192 -99.93655 2738 ft 232 kts 33°
2026-04-14 15:28 32.49123 -99.92231 2669 ft 219 kts 72°
2026-04-14 15:28 32.49514 -99.90418 2624 ft 229 kts 89°
2026-04-14 15:28 32.49310 -99.88606 2679 ft 223 kts 112°
2026-04-14 15:28 32.48385 -99.87191 2511 ft 220 kts 153°
2026-04-14 15:29 32.47492 -99.86606 2538 ft 215 kts 161°
2026-04-14 15:29 32.45701 -99.86267 2247 ft 185 kts 173°
2026-04-14 15:29 32.44869 -99.86107 2069 ft 180 kts 168°
2026-04-14 15:29 32.43672 -99.85825 1882 ft 167 kts 169°
2026-04-14 15:30 32.42612 -99.85583 1864 ft 147 kts 168°
2026-04-14 15:30 32.41439 -99.85319 2011 ft 184 kts 169°
2026-04-14 15:30 32.40164 -99.85041 2489 ft 186 kts 168°
2026-04-14 15:30 32.38898 -99.84728 3048 ft 188 kts 169°
2026-04-14 15:31 32.37592 -99.84322 3515 ft 199 kts 169°
2026-04-14 15:31 32.36268 -99.83856 4451 ft 202 kts 169°
2026-04-14 15:31 32.34906 -99.83352 5374 ft 210 kts 168°
2026-04-14 15:31 32.33466 -99.82826 6552 ft 224 kts 168°
2026-04-14 15:32 32.31848 -99.82263 7299 ft 262 kts 168°
2026-04-14 15:32 32.29979 -99.81899 8307 ft 280 kts 189°
2026-04-14 15:32 32.28193 -99.83010 9210 ft 314 kts 222°
2026-04-14 15:32 32.26508 -99.84946 9650 ft 362 kts 224°
2026-04-14 15:33 32.24602 -99.87185 9859 ft 411 kts 224°
2026-04-14 15:33 32.22510 -99.89671 9934 ft 452 kts 224°
2026-04-14 15:33 32.20524 -99.92776 10062 ft 506 kts 246°
2026-04-14 15:33 32.19916 -99.97044 10817 ft 551 kts 271°
2026-04-14 15:34 32.20484 -100.01559 11537 ft 548 kts 278°
2026-04-14 15:34 32.21053 -100.06060 12052 ft 558 kts 277°
2026-04-14 15:34 32.21670 -100.10630 12285 ft 567 kts 277°
2026-04-14 15:34 32.22281 -100.15263 12380 ft 572 kts 277°
2026-04-14 15:35 32.22891 -100.19854 12444 ft 575 kts 277°
2026-04-14 15:35 32.23503 -100.24538 12481 ft 577 kts 277°
2026-04-14 15:35 32.24110 -100.29244 12501 ft 578 kts 277°
2026-04-14 15:35 32.24701 -100.33944 12518 ft 579 kts 277°
2026-04-14 15:36 32.25278 -100.38575 12526 ft 554 kts 276°
2026-04-14 15:36 32.25812 -100.42932 12529 ft 530 kts 276°
2026-04-14 15:36 32.26336 -100.47172 12531 ft 509 kts 276°
2026-04-14 15:36 32.26838 -100.51243 12529 ft 494 kts 276°
2026-04-14 15:37 32.27334 -100.55214 12530 ft 478 kts 276°
2026-04-14 15:37 32.27804 -100.58954 12529 ft 442 kts 276°
2026-04-14 15:37 32.28226 -100.62304 12519 ft 369 kts 276°
2026-04-14 15:37 32.28573 -100.65055 12505 ft 340 kts 275°
2026-04-14 15:38 32.28930 -100.68054 12509 ft 396 kts 275°
2026-04-14 15:38 32.29341 -100.71475 12505 ft 441 kts 276°
2026-04-14 15:38 32.29797 -100.75188 12450 ft 468 kts 276°
2026-04-14 15:38 32.30279 -100.78998 11998 ft 457 kts 276°
2026-04-14 15:39 32.30753 -100.82648 11100 ft 444 kts 277°
2026-04-14 15:39 32.31218 -100.86252 9840 ft 443 kts 277°
2026-04-14 15:39 32.31670 -100.89826 8359 ft 444 kts 277°
2026-04-14 15:39 32.32123 -100.93524 6735 ft 473 kts 277°
2026-04-14 15:40 32.32602 -100.97508 4958 ft 504 kts 277°
2026-04-14 15:40 32.33114 -101.01653 4182 ft 485 kts 276°
2026-04-14 15:40 32.33581 -101.05187 3925 ft 414 kts 276°
2026-04-14 15:40 32.34023 -101.08440 3696 ft 388 kts 276°
2026-04-14 15:41 32.34447 -101.11510 3582 ft 367 kts 276°
2026-04-14 15:41 32.35015 -101.14409 3394 ft 356 kts 284°
2026-04-14 15:41 32.35934 -101.17109 3250 ft 352 kts 296°
2026-04-14 15:41 32.37436 -101.19322 3446 ft 354 kts 313°
2026-04-14 15:42 32.39292 -101.21374 3580 ft 377 kts 314°
2026-04-14 15:42 32.41237 -101.23473 3373 ft 375 kts 315°
2026-04-14 15:42 32.43167 -101.25518 3253 ft 367 kts 316°
2026-04-14 15:42 32.45060 -101.27493 3220 ft 359 kts 316°
2026-04-14 15:43 32.47004 -101.29230 3248 ft 352 kts 326°
2026-04-14 15:43 32.49115 -101.30625 3513 ft 347 kts 332°
2026-04-14 15:43 32.51397 -101.31888 3652 ft 375 kts 334°
2026-04-14 15:43 32.53862 -101.33195 3736 ft 399 kts 334°
2026-04-14 15:44 32.56484 -101.34551 3594 ft 424 kts 336°
2026-04-14 15:44 32.59230 -101.35784 3560 ft 408 kts 340°
2026-04-14 15:44 32.61838 -101.36821 3621 ft 385 kts 340°
2026-04-14 15:44 32.64342 -101.37777 3537 ft 370 kts 341°
2026-04-14 15:45 32.66729 -101.38690 3487 ft 360 kts 340°
2026-04-14 15:45 32.69069 -101.39584 3703 ft 343 kts 341°
2026-04-14 15:45 32.71334 -101.40399 3620 ft 338 kts 341°
2026-04-14 15:45 32.73569 -101.41197 3526 ft 333 kts 342°
2026-04-14 15:46 32.75771 -101.41949 3589 ft 324 kts 343°
2026-04-14 15:46 32.77912 -101.42656 3712 ft 315 kts 343°
2026-04-14 15:46 32.79982 -101.43323 3734 ft 310 kts 343°
2026-04-14 15:46 32.82067 -101.43964 3694 ft 308 kts 345°
2026-04-14 15:47 32.84114 -101.44570 3836 ft 299 kts 344°
2026-04-14 15:47 32.86147 -101.45156 3736 ft 301 kts 345°
2026-04-14 15:47 32.88183 -101.45726 3761 ft 300 kts 345°
2026-04-14 15:47 32.90372 -101.46329 3756 ft 348 kts 346°
2026-04-14 15:48 32.92792 -101.47232 3805 ft 386 kts 330°
2026-04-14 15:48 32.95022 -101.49212 4032 ft 414 kts 313°
2026-04-14 15:48 32.96970 -101.51855 4191 ft 441 kts 308°
2026-04-14 15:48 32.99014 -101.54757 4259 ft 454 kts 308°
2026-04-14 15:49 33.00991 -101.57687 4382 ft 454 kts 304°
2026-04-14 15:49 33.02701 -101.60575 4258 ft 409 kts 302°
2026-04-14 15:49 33.04076 -101.63347 4349 ft 373 kts 289°
2026-04-14 15:49 33.04657 -101.66235 4423 ft 347 kts 277°
2026-04-14 15:50 33.04969 -101.69016 4482 ft 328 kts 272°
2026-04-14 15:50 33.04704 -101.71801 4441 ft 355 kts 253°
2026-04-14 15:50 33.03872 -101.74512 4071 ft 350 kts 248°
2026-04-14 15:50 33.02846 -101.77076 4074 ft 332 kts 237°
2026-04-14 15:51 33.01619 -101.79340 4067 ft 323 kts 236°
2026-04-14 15:51 33.00379 -101.81554 3929 ft 318 kts 237°
2026-04-14 15:51 32.99321 -101.83787 4120 ft 303 kts 243°
2026-04-14 15:51 32.98555 -101.86095 4149 ft 297 kts 251°
2026-04-14 15:52 32.97923 -101.88564 4254 ft 326 kts 251°
2026-04-14 15:52 32.97158 -101.91226 4297 ft 359 kts 250°
2026-04-14 15:52 32.96424 -101.94166 4379 ft 384 kts 257°
2026-04-14 15:52 32.96052 -101.97414 4365 ft 406 kts 262°
2026-04-14 15:53 32.95577 -102.00742 4393 ft 397 kts 259°
2026-04-14 15:53 32.95125 -102.03899 4284 ft 376 kts 259°
2026-04-14 15:53 32.94688 -102.06969 4395 ft 373 kts 259°
2026-04-14 15:53 32.94260 -102.09937 4316 ft 357 kts 259°
2026-04-14 15:54 32.93497 -102.15636 4128 ft 354 kts 261°
2026-04-14 15:54 32.93166 -102.18603 4126 ft 374 kts 263°
2026-04-14 15:54 32.93230 -102.21654 4082 ft 359 kts 277°
2026-04-14 15:55 32.93845 -102.24433 4257 ft 339 kts 287°
2026-04-14 15:55 32.94553 -102.27068 4260 ft 328 kts 285°
2026-04-14 15:55 32.95245 -102.29614 4248 ft 321 kts 286°
2026-04-14 15:55 32.95996 -102.32099 4159 ft 319 kts 291°
2026-04-14 15:56 32.97020 -102.34426 4190 ft 314 kts 298°
2026-04-14 15:56 32.98156 -102.36748 4226 ft 349 kts 298°
2026-04-14 15:56 32.99469 -102.39436 4021 ft 396 kts 298°
2026-04-14 15:56 33.00892 -102.42118 4190 ft 374 kts 305°
2026-04-14 15:57 33.02578 -102.44611 4207 ft 399 kts 307°
2026-04-14 15:57 33.04349 -102.47198 4363 ft 393 kts 306°
2026-04-14 15:57 33.05990 -102.49675 4449 ft 368 kts 307°
2026-04-14 15:57 33.07644 -102.51951 4475 ft 369 kts 309°
2026-04-14 15:58 33.09375 -102.54276 4542 ft 370 kts 309°
2026-04-14 15:58 33.11141 -102.56600 4528 ft 394 kts 309°
2026-04-14 15:58 33.13025 -102.59092 4510 ft 409 kts 309°
2026-04-14 15:58 33.14917 -102.61731 4611 ft 424 kts 307°
2026-04-14 15:59 33.16823 -102.64462 4856 ft 429 kts 307°
2026-04-14 15:59 33.18743 -102.67206 4942 ft 433 kts 308°
2026-04-14 15:59 33.20662 -102.69956 4713 ft 422 kts 307°
2026-04-14 15:59 33.22456 -102.72625 4616 ft 407 kts 306°
2026-04-14 16:00 33.24221 -102.75310 4643 ft 424 kts 305°
2026-04-14 16:00 33.25982 -102.78001 4607 ft 398 kts 305°
2026-04-14 16:00 33.27724 -102.80508 4829 ft 397 kts 308°
2026-04-14 16:00 33.29570 -102.83072 4996 ft 415 kts 308°
2026-04-14 16:01 33.31496 -102.85729 5040 ft 432 kts 308°
2026-04-14 16:01 33.33487 -102.88433 5081 ft 427 kts 308°
2026-04-14 16:01 33.35405 -102.90943 5138 ft 400 kts 309°
2026-04-14 16:01 33.37261 -102.93325 5005 ft 384 kts 310°
2026-04-14 16:02 33.39107 -102.95574 4888 ft 376 kts 317°
2026-04-14 16:02 33.41505 -102.97092 4822 ft 408 kts 337°
2026-04-14 16:02 33.44283 -102.98155 4820 ft 425 kts 341°
2026-04-14 16:02 33.47128 -102.98985 4769 ft 410 kts 345°
2026-04-14 16:03 33.49858 -102.99676 4631 ft 410 kts 346°
2026-04-14 16:03 33.52717 -103.00394 4728 ft 430 kts 346°
2026-04-14 16:03 33.55694 -103.01129 4998 ft 442 kts 347°
2026-04-14 16:03 33.58790 -103.01456 5467 ft 450 kts 360°
2026-04-14 16:04 33.61894 -103.00722 5631 ft 468 kts 19°
2026-04-14 16:04 33.64831 -102.98577 5413 ft 516 kts 40°
2026-04-14 16:04 33.67104 -102.95288 5624 ft 515 kts 62°
2026-04-14 16:04 33.68334 -102.91273 6490 ft 514 kts 78°
2026-04-14 16:05 33.68723 -102.86994 7239 ft 511 kts 93°
2026-04-14 16:05 33.68253 -102.82890 8259 ft 493 kts 107°
2026-04-14 16:05 33.67033 -102.78988 9054 ft 507 kts 120°
2026-04-14 16:05 33.65371 -102.75173 10032 ft 523 kts 122°
2026-04-14 16:06 33.63591 -102.71296 11078 ft 536 kts 123°
2026-04-14 16:06 33.61610 -102.67404 11272 ft 555 kts 128°
2026-04-14 16:06 33.59464 -102.63584 11770 ft 560 kts 128°
2026-04-14 16:06 33.57260 -102.59704 12401 ft 562 kts 128°
2026-04-14 16:07 33.55076 -102.55806 12945 ft 565 kts 128°
2026-04-14 16:07 33.52882 -102.51875 13401 ft 566 kts 128°
2026-04-14 16:07 33.50693 -102.47941 13786 ft 568 kts 128°
2026-04-14 16:07 33.48505 -102.43986 14068 ft 570 kts 128°
2026-04-14 16:08 33.46309 -102.39999 14300 ft 572 kts 128°
2026-04-14 16:08 33.44151 -102.36061 14475 ft 574 kts 128°
2026-04-14 16:08 33.41975 -102.32029 14573 ft 577 kts 126°
2026-04-14 16:08 33.40192 -102.27676 14652 ft 585 kts 117°
2026-04-14 16:09 33.38657 -102.23145 14722 ft 588 kts 116°
2026-04-14 16:09 33.37152 -102.18588 14770 ft 589 kts 116°
2026-04-14 16:09 33.35674 -102.14081 14790 ft 590 kts 116°
2026-04-14 16:09 33.34182 -102.09492 14779 ft 591 kts 115°
2026-04-14 16:10 33.32722 -102.04885 14754 ft 592 kts 112°
2026-04-14 16:10 33.32015 -102.00005 14714 ft 601 kts 97°
2026-04-14 16:10 33.31869 -101.94983 14730 ft 602 kts 94°
2026-04-14 16:10 33.31752 -101.89975 14734 ft 601 kts 95°
2026-04-14 16:11 33.31630 -101.85033 14675 ft 601 kts 95°
2026-04-14 16:11 33.31524 -101.80039 14567 ft 600 kts 94°
2026-04-14 16:11 33.31438 -101.75173 14512 ft 570 kts 94°
2026-04-14 16:11 33.31359 -101.70461 14482 ft 568 kts 94°
2026-04-14 16:12 33.31286 -101.65768 14474 ft 567 kts 94°
2026-04-14 16:12 33.31215 -101.61087 14461 ft 567 kts 94°
2026-04-14 16:12 33.31140 -101.56450 14471 ft 563 kts 94°
2026-04-14 16:12 33.31067 -101.51758 14466 ft 561 kts 94°
2026-04-14 16:13 33.30998 -101.47069 14464 ft 560 kts 94°
2026-04-14 16:13 33.30922 -101.42370 14449 ft 561 kts 94°
2026-04-14 16:13 33.30851 -101.37758 14453 ft 561 kts 94°
2026-04-14 16:13 33.30778 -101.33080 14463 ft 562 kts 94°
2026-04-14 16:14 33.30706 -101.28402 14460 ft 563 kts 94°
2026-04-14 16:14 33.30636 -101.23740 14462 ft 563 kts 94°
2026-04-14 16:14 33.30561 -101.19079 14464 ft 562 kts 94°
2026-04-14 16:14 33.30486 -101.14422 14463 ft 561 kts 94°
2026-04-14 16:15 33.30409 -101.09753 14457 ft 559 kts 94°
2026-04-14 16:15 33.30333 -101.05092 14460 ft 560 kts 94°
2026-04-14 16:15 33.30257 -101.00485 14465 ft 561 kts 94°
2026-04-14 16:15 33.30181 -100.95836 14466 ft 562 kts 94°
2026-04-14 16:16 33.30105 -100.91174 14470 ft 560 kts 94°
2026-04-14 16:16 33.30030 -100.86536 14470 ft 558 kts 94°
2026-04-14 16:16 33.29954 -100.81878 14474 ft 558 kts 94°
2026-04-14 16:16 33.29875 -100.77216 14471 ft 559 kts 94°
2026-04-14 16:17 33.29795 -100.72562 14473 ft 560 kts 94°
2026-04-14 16:17 33.29718 -100.67950 14469 ft 561 kts 94°
2026-04-14 16:17 33.29637 -100.63300 14473 ft 562 kts 94°
2026-04-14 16:17 33.29554 -100.58638 14472 ft 562 kts 94°
2026-04-14 16:18 33.29473 -100.53963 14466 ft 563 kts 94°
2026-04-14 16:18 33.29387 -100.49303 14466 ft 561 kts 94°
2026-04-14 16:18 33.29331 -100.46223 14464 ft 551 kts 94°
2026-04-14 16:18 33.29193 -100.41752 14455 ft 524 kts 99°
2026-04-14 16:19 33.28053 -100.37824 14443 ft 500 kts 127°
2026-04-14 16:19 33.24799 -100.34077 14471 ft 490 kts 149°
2026-04-14 16:19 33.22844 -100.32673 14479 ft 485 kts 155°
2026-04-14 16:19 33.19879 -100.30739 14474 ft 484 kts 154°
2026-04-14 16:20 33.16940 -100.28724 14476 ft 484 kts 154°
2026-04-14 16:20 33.14037 -100.26734 14474 ft 484 kts 153°
2026-04-14 16:20 33.11107 -100.24697 14478 ft 483 kts 153°
2026-04-14 16:20 33.08181 -100.22649 14477 ft 484 kts 153°
2026-04-14 16:21 33.05249 -100.20584 14479 ft 485 kts 153°
2026-04-14 16:21 33.02398 -100.18570 14474 ft 457 kts 153°
2026-04-14 16:21 32.99823 -100.16751 14469 ft 384 kts 153°
2026-04-14 16:21 32.97561 -100.15160 14475 ft 379 kts 154°
2026-04-14 16:22 32.95348 -100.13600 14479 ft 367 kts 154°
2026-04-14 16:22 32.93138 -100.12033 14483 ft 366 kts 153°
2026-04-14 16:22 32.90935 -100.10456 14485 ft 367 kts 153°
2026-04-14 16:22 32.88761 -100.08894 14489 ft 371 kts 153°
2026-04-14 16:23 32.86563 -100.07316 14496 ft 371 kts 153°
2026-04-14 16:23 32.84350 -100.05736 14489 ft 369 kts 153°
2026-04-14 16:23 32.82133 -100.04164 14492 ft 368 kts 153°
2026-04-14 16:23 32.79921 -100.02603 14493 ft 370 kts 153°
2026-04-14 16:24 32.77711 -100.01046 14496 ft 372 kts 153°
2026-04-14 16:24 32.75486 -99.99481 14496 ft 369 kts 153°
2026-04-14 16:24 32.73358 -99.97798 14474 ft 375 kts 140°
2026-04-14 16:24 32.72090 -99.95057 14358 ft 393 kts 103°
2026-04-14 16:25 32.72360 -99.91842 13918 ft 399 kts 66°
2026-04-14 16:25 32.74109 -99.89367 13471 ft 393 kts 30°
2026-04-14 16:25 32.76666 -99.88522 13024 ft 380 kts 353°
2026-04-14 16:25 32.79199 -99.89119 12582 ft 368 kts 341°
2026-04-14 16:26 32.81543 -99.89884 11891 ft 345 kts 339°
2026-04-14 16:26 32.83862 -99.90686 11206 ft 349 kts 339°
2026-04-14 16:26 32.86201 -99.91529 10542 ft 352 kts 339°
2026-04-14 16:26 32.88273 -99.92581 9895 ft 310 kts 315°
2026-04-14 16:27 32.89270 -99.94786 9267 ft 305 kts 269°
2026-04-14 16:27 32.88611 -99.97060 8744 ft 296 kts 222°
2026-04-14 16:27 32.86783 -99.97958 8253 ft 299 kts 177°
2026-04-14 16:27 32.84773 -99.97291 7676 ft 300 kts 161°
2026-04-14 16:28 32.82737 -99.96617 7060 ft 304 kts 166°
2026-04-14 16:28 32.80692 -99.95962 6571 ft 304 kts 166°
2026-04-14 16:28 32.78646 -99.95288 6062 ft 306 kts 167°
2026-04-14 16:28 32.76590 -99.94612 5535 ft 306 kts 168°
2026-04-14 16:29 32.74565 -99.93939 5038 ft 306 kts 169°
2026-04-14 16:29 32.72515 -99.93257 4536 ft 305 kts 168°
2026-04-14 16:29 32.70492 -99.92567 4264 ft 297 kts 168°
2026-04-14 16:29 32.68547 -99.91908 4139 ft 284 kts 168°
2026-04-14 16:30 32.66694 -99.91307 4087 ft 267 kts 173°
2026-04-14 16:30 32.64918 -99.90888 4070 ft 254 kts 173°
2026-04-14 16:30 32.63234 -99.90464 4059 ft 241 kts 172°
2026-04-14 16:30 32.61632 -99.90055 4046 ft 229 kts 173°
2026-04-14 16:31 32.60126 -99.89667 4053 ft 218 kts 173°
2026-04-14 16:31 32.58673 -99.89288 4052 ft 208 kts 173°
2026-04-14 16:31 32.57291 -99.88932 4060 ft 199 kts 174°
2026-04-14 16:31 32.55926 -99.88585 3860 ft 205 kts 174°
2026-04-14 16:32 32.54482 -99.88225 3673 ft 218 kts 173°
2026-04-14 16:32 32.52967 -99.87840 3496 ft 226 kts 175°
2026-04-14 16:32 32.51461 -99.87710 3427 ft 209 kts 182°
2026-04-14 16:32 32.50063 -99.87440 3190 ft 202 kts 168°
2026-04-14 16:33 32.48759 -99.86960 3019 ft 193 kts 168°
2026-04-14 16:33 32.47361 -99.86634 2733 ft 222 kts 174°
2026-04-14 16:33 32.45732 -99.86309 2487 ft 251 kts 172°
2026-04-14 16:33 32.43938 -99.85908 2181 ft 271 kts 171°
2026-04-14 16:34 32.42013 -99.85475 2041 ft 300 kts 169°
2026-04-14 16:34 32.39935 -99.84995 2214 ft 296 kts 169°
2026-04-14 16:34 32.38005 -99.84514 2541 ft 274 kts 169°
2026-04-14 16:34 32.36248 -99.84069 3197 ft 243 kts 172°
2026-04-14 16:35 32.34607 -99.84134 3351 ft 235 kts 195°
2026-04-14 16:35 32.33245 -99.85196 3151 ft 245 kts 230°
2026-04-14 16:35 32.32811 -99.86948 3491 ft 214 kts 272°
2026-04-14 16:35 32.33604 -99.88380 3450 ft 215 kts 315°
2026-04-14 16:36 32.35039 -99.89149 3453 ft 243 kts 339°
2026-04-14 16:36 32.36716 -99.89651 3497 ft 258 kts 342°
2026-04-14 16:36 32.38500 -99.90175 3501 ft 276 kts 342°
2026-04-14 16:36 32.40391 -99.90672 3458 ft 270 kts 344°
2026-04-14 16:37 32.42155 -99.91133 3343 ft 248 kts 343°
2026-04-14 16:37 32.43808 -99.91556 3311 ft 247 kts 343°
2026-04-14 16:37 32.45566 -99.92006 3252 ft 266 kts 344°
2026-04-14 16:37 32.47297 -99.92033 3076 ft 243 kts 11°
2026-04-14 16:38 32.48594 -99.90978 2791 ft 216 kts 53°
2026-04-14 16:38 32.48988 -99.89405 2699 ft 199 kts 91°
2026-04-14 16:38 32.48873 -99.87739 2628 ft 207 kts 108°
2026-04-14 16:38 32.47925 -99.86644 2589 ft 196 kts 176°
2026-04-14 16:39 32.46616 -99.86449 2436 ft 182 kts 174°
2026-04-14 16:39 32.45394 -99.86249 2205 ft 171 kts 173°
2026-04-14 16:39 32.44252 -99.85967 1959 ft 162 kts 169°
2026-04-14 16:39 32.43209 -99.85720 1865 ft 145 kts 170°
2026-04-14 16:40 32.42163 -99.85474 1912 ft 172 kts 170°
2026-04-14 16:40 32.40922 -99.85189 2256 ft 187 kts 171°
2026-04-14 16:40 32.39612 -99.84906 2682 ft 195 kts 172°
2026-04-14 16:40 32.38252 -99.84609 3144 ft 201 kts 172°
2026-04-14 16:41 32.36850 -99.84627 3478 ft 219 kts 195°
2026-04-14 16:41 32.35503 -99.85693 3598 ft 255 kts 228°
2026-04-14 16:41 32.34842 -99.87753 3681 ft 289 kts 262°
2026-04-14 16:41 32.35429 -99.90216 3395 ft 348 kts 303°
2026-04-14 16:42 32.37512 -99.91927 3401 ft 391 kts 339°
2026-04-14 16:42 32.40232 -99.92694 3313 ft 381 kts 346°
2026-04-14 16:42 32.42637 -99.93272 3316 ft 348 kts 347°
2026-04-14 16:42 32.44958 -99.93787 3348 ft 329 kts 347°
2026-04-14 16:43 32.47125 -99.94026 3527 ft 291 kts
2026-04-14 16:43 32.48855 -99.93189 3504 ft 254 kts 37°
2026-04-14 16:43 32.49880 -99.91637 3374 ft 236 kts 63°
2026-04-14 16:43 32.50304 -99.89782 3379 ft 223 kts 92°
2026-04-14 16:44 32.49880 -99.88132 3176 ft 208 kts 122°
2026-04-14 16:44 32.48878 -99.86953 2775 ft 199 kts 155°
2026-04-14 16:44 32.47558 -99.86712 2414 ft 187 kts 172°
2026-04-14 16:45 32.45257 -99.86196 2163 ft 160 kts 169°
2026-04-14 16:45 32.44174 -99.85951 1942 ft 156 kts 169°
2026-04-14 16:45 32.43155 -99.85701 1865 ft 145 kts 169°
2026-04-14 16:45 32.42007 -99.85438 1998 ft 188 kts 167°
2026-04-14 16:46 32.40617 -99.85094 2599 ft 215 kts 166°
2026-04-14 16:46 32.39130 -99.84702 3253 ft 228 kts 167°
2026-04-14 16:46 32.37505 -99.84366 3538 ft 249 kts 179°
2026-04-14 16:46 32.35866 -99.85075 3544 ft 265 kts 213°
2026-04-14 16:47 32.34782 -99.86873 3577 ft 281 kts 244°
2026-04-14 16:47 32.34779 -99.89256 3312 ft 317 kts 282°
2026-04-14 16:47 32.36263 -99.91300 3186 ft 339 kts 326°
2026-04-14 16:47 32.38602 -99.92040 3076 ft 359 kts 347°
2026-04-14 16:48 32.41122 -99.92526 3189 ft 373 kts 347°
2026-04-14 16:48 32.43728 -99.93106 3174 ft 387 kts 345°
2026-04-14 16:48 32.46393 -99.93800 3263 ft 403 kts 345°
2026-04-14 16:48 32.49102 -99.93822 3406 ft 381 kts 13°
2026-04-14 16:49 32.50882 -99.92391 3472 ft 275 kts 56°
2026-04-14 16:49 32.51504 -99.90411 3201 ft 240 kts 85°
2026-04-14 16:49 32.51273 -99.88609 2961 ft 210 kts 118°
2026-04-14 16:49 32.50263 -99.87311 2786 ft 220 kts 150°
2026-04-14 16:50 32.48823 -99.86954 2799 ft 205 kts 176°
2026-04-14 16:50 32.47440 -99.86716 2685 ft 197 kts 172°
2026-04-14 16:50 32.46137 -99.86377 2414 ft 187 kts 171°
2026-04-14 16:50 32.44902 -99.86118 2073 ft 174 kts 172°
2026-04-14 16:51 32.43786 -99.85858 1888 ft 152 kts 171°
2026-04-14 16:51 32.42889 -99.85650 1866 ft 106 kts 169°
2026-04-14 16:51 32.42221 -99.85495 1865 ft 91 kts 167°
2026-04-14 16:51 32.41638 -99.85358 1863 ft 75 kts 168°
2026-04-14 16:52 32.41263 -99.85261 1864 ft 26 kts 148°
2026-04-14 16:52 32.41246 -99.85146 1863 ft 14 kts 80°
2026-04-14 16:52 32.41274 -99.84979 1864 ft 22 kts 78°
2026-04-14 16:52 32.41319 -99.84855 1863 ft 9 kts 76°
2026-04-14 16:53 32.41326 -99.84818 1862 ft 0 kts 78°